Location: Pachuta
(32.0431°N, 88.8831°W)
Time: 08:34:35
(UTC+00:00)

Envisat - Visible Passes

Search period start: 23 April 2021 00:00
Search period end: 03 May 2021 00:00
Orbit: 764 x 766 km, 98.1° (Epoch: 22 April)

Date Brightness Start Highest point End Pass type
(mag) Time Alt. Az. Time Alt. Az. Time Alt. Az.
23 Apr 5.9 10:11:32 10° ENE 10:14:04 14° E 10:16:36 10° ESE visible
25 Apr 5.3 10:35:24 10° NE 10:39:37 26° E 10:43:49 10° SSE visible
28 Apr 5.7 10:24:25 10° NE 10:28:06 20° E 10:31:46 10° SE visible
01 May 5.8 10:13:41 10° ENE 10:16:34 15° E 10:19:27 10° SE visible
